Location: Arlington
(40.6323°N, 74.1651°W)
Time: 00:40:45
(UTC+00:00)

NOAA 11 - Pass Details

Date: 25 February 2020
Orbit: 833 x 849 km, 98.4° (Epoch: 01 April)

Event Time Altitude Azimuth Distance (km) Brightness Sun altitude
Rises 23:33:51 0° 167° (SSE) 3,378 7.2 -10.4°
Reaches altitude 10° 23:36:12 10° 168° (SSE) 2,446 6.5 -10.9°
Maximum altitude 23:41:38 83° 256° (WSW) 848 4.3 -11.9°
Drops below altitude 10° 23:47:05 10° 345° (NNW) 2,454 6.8 -12.9°
Sets 23:49:27 0° 347° (NNW) 3,391 7.5 -13.4°
